| time (UTC) | temp C | wind direction | speed KPH | gust KPH | rain 1hr cm | rain 24hr cm | rain mn cm | humidity % | barometer mb |
| 20260507060020 | 12 | 342 | 3.2 | 4.8 | 0.00 | 0.20 | 0.00 | 83 | 1006.8 |
| 20260507055043 | 12 | 330 | 3.2 | 4.8 | 0.00 | 0.20 | 0.00 | 83 | 1007.0 |
| 20260507054026 | 12 | 320 | 4.8 | 4.8 | 0.00 | 0.20 | 0.00 | 83 | 1007.1 |
| 20260507053023 | 12 | 325 | 6.4 | 12.9 | 0.00 | 0.20 | 0.00 | 83 | 1007.3 |
| 20260507052019 | 13 | 328 | 6.4 | 9.7 | 0.00 | 0.20 | 0.00 | 84 | 1007.3 |
| 20260507051027 | 13 | 321 | 4.8 | 8.0 | 0.00 | 0.20 | 0.00 | 86 | 1007.3 |
| 20260507050023 | 13 | 319 | 3.2 | 4.8 | 0.00 | 0.20 | 0.00 | 86 | 1007.1 |
| 20260507045020 | 13 | 326 | 1.6 | 4.8 | 0.00 | 0.20 | 0.00 | 87 | 1007.2 |
| 20260507044030 | 13 | 329 | 4.8 | 6.4 | 0.00 | 0.20 | 0.00 | 87 | 1007.2 |
| 20260507043023 | 13 | 328 | 0.0 | 3.2 | 0.00 | 0.20 | 0.00 | 87 | 1007.0 |
| 20260507042024 | 13 | 334 | 3.2 | 8.0 | 0.00 | 0.20 | 0.00 | 87 | 1007.1 |
| 20260507041024 | 14 | 321 | 3.2 | 9.7 | 0.00 | 0.20 | 0.00 | 86 | 1007.0 |
| 20260507040105 | 14 | 324 | 4.8 | 8.0 | 0.00 | 0.20 | 0.00 | 86 | 1007.0 |
| 20260507035028 | 15 | 327 | 6.4 | 12.9 | 0.00 | 0.20 | 0.20 | 88 | 1007.1 |
| 20260507034024 | 15 | 310 | 1.6 | 6.4 | 0.00 | 0.20 | 0.20 | 90 | 1006.9 |
| 20260507033020 | 15 | 322 | 1.6 | 4.8 | 0.00 | 0.20 | 0.20 | 91 | 1006.6 |
| 20260507032026 | 15 | 335 | 1.6 | 8.0 | 0.00 | 0.20 | 0.20 | 92 | 1006.5 |
| 20260507031019 | 15 | 306 | 1.6 | 4.8 | 0.00 | 0.20 | 0.20 | 92 | 1006.4 |
| 20260507030021 | 15 | 0.0 | 0.0 | 0.00 | 0.20 | 0.20 | 92 | 1006.3 | |
| 20260507025025 | 15 | 0.0 | 0.0 | 0.00 | 0.20 | 0.20 | 92 | 1006.0 | |
| 20260507024044 | 15 | 0.0 | 0.0 | 0.00 | 0.20 | 0.20 | 92 | 1006.0 | |
| 20260507023039 | 15 | 0.0 | 0.0 | 0.00 | 0.20 | 0.20 | 91 | 1006.1 | |
| 20260507022026 | 15 | 0.0 | 0.0 | 0.00 | 0.20 | 0.20 | 91 | 1006.2 | |
| 20260507021023 | 15 | 0.0 | 1.6 | 0.00 | 0.20 | 0.20 | 91 | 1006.1 | |
| 20260507020019 | 15 | 0.0 | 1.6 | 0.00 | 0.20 | 0.20 | 91 | 1006.1 | |
| 20260507015101 | 15 | 268 | 0.0 | 3.2 | 0.00 | 0.20 | 0.20 | 91 | 1006.1 |
| 20260507014026 | 15 | 0.0 | 0.0 | 0.00 | 0.20 | 0.20 | 91 | 1006.0 | |
| 20260507013023 | 15 | 139 | 3.2 | 6.4 | 0.00 | 0.20 | 0.20 | 92 | 1006.1 |
| 20260507012020 | 15 | 161 | 1.6 | 4.8 | 0.00 | 0.20 | 0.20 | 92 | 1006.1 |
| 20260507011023 | 15 | 105 | 1.6 | 4.8 | 0.00 | 0.20 | 0.20 | 92 | 1006.2 |
| 20260507010025 | 15 | 167 | 3.2 | 6.4 | 0.00 | 0.20 | 0.20 | 92 | 1006.2 |
| 20260507005044 | 15 | 161 | 1.6 | 6.4 | 0.00 | 0.20 | 0.20 | 92 | 1006.3 |
| 20260507004020 | 15 | 127 | 0.0 | 4.8 | 0.00 | 0.20 | 0.20 | 92 | 1006.2 |
| 20260507003025 | 15 | 143 | 0.0 | 4.8 | 0.00 | 0.20 | 0.20 | 92 | 1006.2 |
| 20260507002019 | 15 | 114 | 0.0 | 4.8 | 0.00 | 0.20 | 0.20 | 92 | 1006.1 |
| 20260507001023 | 15 | 140 | 0.0 | 4.8 | 0.00 | 0.20 | 0.20 | 92 | 1006.1 |
| 20260507000024 | 15 | 98 | 0.0 | 1.6 | 0.05 | 0.20 | 0.20 | 92 | 1005.9 |
| 20260506235023 | 15 | 148 | 1.6 | 6.4 | 0.05 | 0.20 | 0.20 | 92 | 1005.9 |
| 20260506234024 | 15 | 171 | 4.8 | 8.0 | 0.05 | 0.20 | 0.20 | 92 | 1005.8 |
| 20260506233024 | 15 | 167 | 1.6 | 4.8 | 0.05 | 0.20 | 0.20 | 92 | 1005.9 |
| 20260506232023 | 15 | 89 | 0.0 | 4.8 | 0.05 | 0.20 | 0.20 | 91 | 1005.9 |
| 20260506231026 | 15 | 160 | 0.0 | 3.2 | 0.05 | 0.20 | 0.20 | 91 | 1005.8 |
| 20260506230023 | 15 | 170 | 0.0 | 4.8 | 0.00 | 0.15 | 0.15 | 90 | 1005.9 |
| 20260506225020 | 15 | 182 | 3.2 | 6.4 | 0.00 | 0.15 | 0.15 | 90 | 1006.1 |
| 20260506224026 | 15 | 15 | 0.0 | 4.8 | 0.00 | 0.15 | 0.15 | 90 | 1006.1 |
| 20260506223040 | 15 | 0.0 | 0.0 | 0.00 | 0.15 | 0.15 | 90 | 1006.1 | |
| 20260506222027 | 15 | 160 | 0.0 | 3.2 | 0.03 | 0.15 | 0.15 | 89 | 1006.1 |
| 20260506221044 | 15 | 168 | 1.6 | 6.4 | 0.03 | 0.15 | 0.15 | 89 | 1006.3 |
| 20260506220024 | 16 | 198 | 1.6 | 6.4 | 0.03 | 0.15 | 0.15 | 89 | 1006.3 |
| 20260506215020 | 15 | 178 | 1.6 | 4.8 | 0.03 | 0.15 | 0.15 | 89 | 1006.3 |
| 20260506214025 | 15 | 201 | 1.6 | 4.8 | 0.03 | 0.15 | 0.15 | 89 | 1006.6 |
| 20260506213043 | 15 | 175 | 3.2 | 6.4 | 0.03 | 0.15 | 0.15 | 88 | 1006.7 |
| 20260506212140 | 15 | 164 | 1.6 | 4.8 | 0.00 | 0.13 | 0.13 | 88 | 1006.7 |
| 20260506211023 | 15 | 174 | 1.6 | 6.4 | 0.03 | 0.13 | 0.13 | 88 | 1006.8 |
| 20260506210026 | 15 | 141 | 1.6 | 4.8 | 0.03 | 0.13 | 0.13 | 88 | 1006.8 |
| 20260506205027 | 15 | 137 | 3.2 | 8.0 | 0.03 | 0.13 | 0.13 | 87 | 1006.9 |
| 20260506204020 | 15 | 158 | 4.8 | 11.3 | 0.03 | 0.13 | 0.13 | 87 | 1007.0 |
| 20260506203023 | 16 | 175 | 6.4 | 11.3 | 0.05 | 0.13 | 0.13 | 87 | 1007.0 |
| 20260506202045 | 16 | 179 | 1.6 | 6.4 | 0.08 | 0.13 | 0.13 | 87 | 1007.0 |
| 20260506201044 | 16 | 171 | 3.2 | 6.4 | 0.05 | 0.10 | 0.10 | 87 | 1007.1 |
| 20260506200019 | 16 | 184 | 3.2 | 11.3 | 0.08 | 0.10 | 0.10 | 86 | 1007.0 |
| 20260506195028 | 16 | 173 | 3.2 | 6.4 | 0.10 | 0.10 | 0.10 | 85 | 1007.0 |
| 20260506194023 | 16 | 156 | 3.2 | 8.0 | 0.10 | 0.10 | 0.10 | 85 | 1007.0 |
| 20260506193020 | 17 | 166 | 1.6 | 4.8 | 0.08 | 0.08 | 0.08 | 83 | 1007.0 |
| 20260506192044 | 17 | 179 | 1.6 | 6.4 | 0.05 | 0.05 | 0.05 | 81 | 1007.0 |
| 20260506191027 | 17 | 156 | 1.6 | 8.0 | 0.05 | 0.05 | 0.05 | 79 | 1007.0 |
| 20260506190024 | 18 | 168 | 1.6 | 6.4 | 0.03 | 0.03 | 0.03 | 77 | 1007.1 |
| 20260506185020 | 18 | 82 | 1.6 | 3.2 | 0.00 | 0.00 | 0.00 | 75 | 1007.1 |
| 20260506184024 | 20 | 134 | 3.2 | 6.4 | 0.00 | 0.00 | 0.00 | 70 | 1007.3 |
| 20260506183025 | 20 | 34 | 3.2 | 8.0 | 0.00 | 0.00 | 0.00 | 68 | 1007.3 |
| 20260506182043 | 21 | 149 | 4.8 | 11.3 | 0.00 | 0.00 | 0.00 | 63 | 1007.3 |
| 20260506181019 | 22 | 111 | 3.2 | 6.4 | 0.00 | 0.00 | 0.00 | 57 | 1007.2 |
| 20260506180046 | 22 | 161 | 1.6 | 9.7 | 0.00 | 0.00 | 0.00 | 53 | 1007.1 |
| 20260506175104 | 22 | 48 | 1.6 | 3.2 | 0.00 | 0.00 | 0.00 | 51 | 1007.2 |
| 20260506174020 | 23 | 123 | 4.8 | 11.3 | 0.00 | 0.00 | 0.00 | 50 | 1007.3 |
| 20260506173024 | 23 | 109 | 4.8 | 11.3 | 0.00 | 0.00 | 0.00 | 49 | 1007.3 |
| 20260506172024 | 23 | 146 | 3.2 | 8.0 | 0.00 | 0.00 | 0.00 | 50 | 1007.3 |
| 20260506171024 | 23 | 118 | 4.8 | 14.5 | 0.00 | 0.00 | 0.00 | 49 | 1007.4 |
| 20260506170026 | 23 | 41 | 3.2 | 8.0 | 0.00 | 0.00 | 0.00 | 48 | 1007.3 |
| 20260506165024 | 23 | 28 | 3.2 | 9.7 | 0.00 | 0.00 | 0.00 | 51 | 1007.4 |
| 20260506164019 | 22 | 123 | 4.8 | 9.7 | 0.00 | 0.00 | 0.00 | 53 | 1007.7 |
| 20260506163023 | 22 | 171 | 3.2 | 6.4 | 0.00 | 0.00 | 0.00 | 53 | 1007.8 |
| 20260506162020 | 22 | 123 | 3.2 | 11.3 | 0.00 | 0.00 | 0.00 | 54 | 1008.0 |
| 20260506161043 | 22 | 141 | 3.2 | 11.3 | 0.00 | 0.00 | 0.00 | 54 | 1008.2 |
| 20260506160020 | 22 | 89 | 1.6 | 9.7 | 0.00 | 0.00 | 0.00 | 55 | 1008.4 |
| 20260506155024 | 22 | 159 | 1.6 | 3.2 | 0.00 | 0.00 | 0.00 | 55 | 1008.6 |
| 20260506154025 | 22 | 52 | 1.6 | 4.8 | 0.00 | 0.00 | 0.00 | 55 | 1008.7 |
| 20260506153022 | 22 | 174 | 3.2 | 6.4 | 0.00 | 0.00 | 0.00 | 54 | 1008.8 |
| 20260506152019 | 22 | 128 | 4.8 | 9.7 | 0.00 | 0.00 | 0.00 | 55 | 1009.0 |
| 20260506151021 | 22 | 148 | 4.8 | 11.3 | 0.00 | 0.00 | 0.00 | 55 | 1009.0 |
| 20260506150024 | 22 | 358 | 1.6 | 3.2 | 0.00 | 0.00 | 0.00 | 56 | 1008.9 |
| 20260506145020 | 22 | 195 | 1.6 | 8.0 | 0.00 | 0.00 | 0.00 | 58 | 1009.1 |
| 20260506144021 | 21 | 63 | 6.4 | 9.7 | 0.00 | 0.00 | 0.00 | 58 | 1009.1 |
| 20260506143023 | 21 | 148 | 3.2 | 6.4 | 0.00 | 0.00 | 0.00 | 59 | 1009.1 |
| 20260506142023 | 21 | 192 | 1.6 | 4.8 | 0.00 | 0.00 | 0.00 | 59 | 1009.1 |
| 20260506141020 | 21 | 111 | 3.2 | 6.4 | 0.00 | 0.00 | 0.00 | 59 | 1009.0 |
| 20260506140023 | 21 | 110 | 3.2 | 8.0 | 0.00 | 0.00 | 0.00 | 61 | 1009.1 |
| 20260506135025 | 21 | 45 | 3.2 | 9.7 | 0.00 | 0.00 | 0.00 | 60 | 1009.2 |
| 20260506134024 | 21 | 153 | 3.2 | 4.8 | 0.00 | 0.00 | 0.00 | 63 | 1009.1 |
| 20260506133020 | 20 | 309 | 3.2 | 9.7 | 0.00 | 0.00 | 0.00 | 65 | 1009.6 |
| 20260506132026 | 19 | 174 | 1.6 | 4.8 | 0.00 | 0.00 | 0.00 | 67 | 1009.7 |
| 20260506131019 | 19 | 44 | 3.2 | 9.7 | 0.00 | 0.00 | 0.00 | 68 | 1009.8 |
| 20260506130024 | 19 | 164 | 8.0 | 11.3 | 0.00 | 0.00 | 0.00 | 67 | 1009.7 |
| 20260506125025 | 19 | 176 | 4.8 | 9.7 | 0.00 | 0.00 | 0.00 | 67 | 1009.7 |
| 20260506124023 | 19 | 188 | 3.2 | 4.8 | 0.00 | 0.00 | 0.00 | 69 | 1009.6 |
| 20260506123024 | 18 | 149 | 3.2 | 9.7 | 0.00 | 0.00 | 0.00 | 70 | 1009.8 |
| 20260506122026 | 18 | 128 | 3.2 | 4.8 | 0.00 | 0.00 | 0.00 | 72 | 1009.8 |
| 20260506121024 | 17 | 140 | 1.6 | 4.8 | 0.00 | 0.00 | 0.00 | 72 | 1009.8 |
| 20260506120019 | 17 | 128 | 3.2 | 6.4 | 0.00 | 0.00 | 0.00 | 73 | 1009.7 |
| 20260506115023 | 16 | 114 | 3.2 | 6.4 | 0.00 | 0.00 | 0.00 | 75 | 1009.9 |
| 20260506114019 | 16 | 168 | 1.6 | 4.8 | 0.00 | 0.00 | 0.00 | 75 | 1010.0 |
| 20260506113042 | 16 | 141 | 3.2 | 6.4 | 0.00 | 0.00 | 0.00 | 75 | 1010.2 |
| 20260506112019 | 16 | 215 | 1.6 | 6.4 | 0.00 | 0.00 | 0.00 | 76 | 1010.4 |
| 20260506111041 | 16 | 167 | 3.2 | 8.0 | 0.00 | 0.00 | 0.00 | 76 | 1010.1 |
| 20260506110025 | 16 | 173 | 1.6 | 3.2 | 0.00 | 0.00 | 0.00 | 77 | 1010.1 |
| 20260506105024 | 15 | 169 | 1.6 | 6.4 | 0.00 | 0.00 | 0.00 | 78 | 1010.1 |
| 20260506104020 | 15 | 152 | 1.6 | 4.8 | 0.00 | 0.00 | 0.00 | 78 | 1010.1 |
| 20260506103046 | 15 | 170 | 1.6 | 3.2 | 0.00 | 0.00 | 0.00 | 78 | 1010.0 |
| 20260506102024 | 15 | 119 | 0.0 | 3.2 | 0.00 | 0.00 | 0.00 | 78 | 1010.1 |
| 20260506101019 | 15 | 186 | 0.0 | 4.8 | 0.00 | 0.00 | 0.00 | 78 | 1010.1 |
| 20260506100024 | 15 | 180 | 1.6 | 8.0 | 0.00 | 0.00 | 0.00 | 78 | 1010.0 |
| 20260506095046 | 15 | 0.0 | 0.0 | 0.00 | 0.00 | 0.00 | 78 | 1010.0 | |
| 20260506094024 | 15 | 161 | 1.6 | 8.0 | 0.00 | 0.00 | 0.00 | 77 | 1009.8 |
| 20260506093020 | 15 | 0.0 | 3.2 | 0.00 | 0.00 | 0.00 | 77 | 1010.0 | |
| 20260506092024 | 15 | 168 | 1.6 | 4.8 | 0.00 | 0.00 | 0.00 | 77 | 1010.0 |
| 20260506091025 | 15 | 188 | 0.0 | 3.2 | 0.00 | 0.00 | 0.00 | 76 | 1009.9 |
| 20260506090023 | 15 | 167 | 1.6 | 4.8 | 0.00 | 0.00 | 0.00 | 76 | 1009.9 |
| 20260506085019 | 15 | 75 | 1.6 | 4.8 | 0.00 | 0.00 | 0.00 | 75 | 1010.1 |
| 20260506084049 | 15 | 182 | 1.6 | 4.8 | 0.00 | 0.00 | 0.00 | 75 | 1010.1 |
| 20260506083039 | 16 | 189 | 0.0 | 3.2 | 0.00 | 0.00 | 0.00 | 74 | 1010.0 |
| 20260506082020 | 16 | 167 | 1.6 | 4.8 | 0.00 | 0.00 | 0.00 | 74 | 1010.0 |
| 20260506081104 | 16 | 170 | 1.6 | 4.8 | 0.00 | 0.00 | 0.00 | 73 | 1010.0 |
| 20260506073022 | 16 | 96 | 1.6 | 3.2 | 0.00 | 0.00 | 0.00 | 71 | 1009.9 |
| 20260506072039 | 16 | 0.0 | 3.2 | 0.00 | 0.00 | 0.00 | 70 | 1009.8 | |
| 20260506071023 | 17 | 167 | 1.6 | 6.4 | 0.00 | 0.00 | 0.00 | 70 | 1009.6 |
| 20260506062024 | 17 | 74 | 1.6 | 4.8 | 0.00 | 0.00 | 0.00 | 66 | 1009.4 |
| 20260506061023 | 17 | 177 | 1.6 | 4.8 | 0.00 | 0.00 | 0.00 | 66 | 1009.4 |